Theta_e
324 324 324 324 324 324 324 325 324 324 324 324 324 324 324 324 323 323 323 322 322 322 322 321 321 321 321 321 322 322 322 322 322 321 322 322 322 323 323 323 323 323 322 322 322 323 323 323 323 322 322 322 322 322 322 322 322 321 321 321 321 320 320 320 319 319 319 319 319
324 324 324 323 324 324 324 323 323 323 324 324 323 323 323 323 322 322 322 322 322 322 322 322 322 322 322 322 322 321 321 321 320 320 319 319 319 319 320 322 322 322 322 322 322 322 322 322 322 322 322 322 321 321 321 321 321 321 321 320 320 320 320 319 319 319 319 319 319
318 318 320 320 322 322 322 322 322 322 322 322 322 322 322 322 322 322 322 322 322 322 322 322 321 320 319 319 318 318 318 318 317 317 317 317 316 317 317 318 319 321 322 322 322 322 321 320 320 320 320 320 320 320 321 321 321 321 320 320 320 320 319 319 319 319 319 319 319
308 309 310 310 311 312 314 315 315 315 315 315 315 315 316 317 317 317 317 317 317 317 317 317 316 315 315 314 313 312 312 312 312 313 314 314 314 314 315 315 317 319 321 321 321 320 320 318 319 320 320 320 320 320 320 320 320 320 320 320 319 319 319 318 318 318 318 318 318
306 306 306 306 306 306 306 306 306 306 306 307 307 307 308 308 309 309 309 309 310 310 311 311 311 311 311 310 310 309 309 309 311 311 310 310 310 311 312 313 314 315 317 320 322 322 321 320 321 321 321 320 320 319 319 319 319 320 319 320 319 319 319 318 318 318 318 318 318
305 305 305 306 305 305 305 305 305 305 305 305 305 305 305 305 305 305 306 306 306 306 307 307 307 307 307 307 306 307 307 307 308 308 308 308 308 308 308 309 311 312 314 315 317 318 319 321 321 321 320 320 319 318 317 316 318 318 319 319 319 319 319 318 318 318 318 317 317
304 304 304 304 304 304 304 304 304 304 305 305 304 304 304 304 304 305 304 305 305 305 305 306 305 304 304 304 304 304 304 304 304 305 305 305 306 306 307 307 308 309 310 312 312 314 317 320 320 320 319 319 319 317 316 317 317 317 317 317 318 318 318 318 318 318 317 317 316
303 303 303 303 303 303 303 303 303 304 304 304 303 303 303 304 304 304 304 304 304 304 304 305 304 303 303 303 303 303 303 303 303 303 303 304 304 304 305 306 306 307 308 309 310 311 313 317 318 319 319 319 318 318 317 317 318 317 316 315 316 317 318 318 318 318 317 316 316
302 302 302 302 302 302 302 302 302 302 302 302 302 303 303 303 303 303 303 303 303 304 303 304 303 303 303 302 302 302 302 302 302 302 302 302 302 303 303 303 304 305 305 306 307 308 309 313 316 318 318 318 318 318 317 317 317 317 316 316 316 316 316 317 317 317 317 316 316
300 300 301 301 301 301 302 301 301 301 301 301 301 301 302 303 302 302 302 302 303 302 302 302 302 302 302 302 302 302 302 302 301 301 302 302 302 302 302 302 302 302 303 304 305 305 306 309 313 315 316 317 317 317 317 316 316 316 316 316 316 315 315 315 315 316 316 316 316
299 299 299 300 300 300 301 300 300 300 300 300 299 300 300 301 301 301 301 301 301 301 301 301 301 301 301 301 301 301 301 301 301 301 301 301 301 301 301 301 301 301 302 302 303 303 304 306 308 310 311 314 315 316 316 315 315 315 314 314 314 314 314 314 314 314 314 315 315
298 298 298 298 298 299 299 299 299 299 299 298 298 298 298 299 299 299 299 299 299 299 299 299 299 300 300 300 300 301 301 301 301 301 301 301 301 301 301 301 301 301 301 301 302 302 303 303 304 305 306 309 311 312 314 314 314 314 313 313 313 312 312 312 312 313 314 314 314
297 297 297 297 297 297 298 298 298 298 297 297 297 297 297 297 298 298 298 297 298 298 298 298 298 299 299 299 300 300 300 300 300 300 300 300 300 300 300 301 301 301 301 301 301 302 302 302 302 303 303 305 306 308 310 311 312 313 313 313 313 312 311 312 312 312 313 313 313
296 296 296 296 296 296 297 296 297 297 297 296 296 297 297 297 297 298 297 297 297 297 297 297 298 298 298 298 298 298 298 299 299 299 299 299 299 299 299 300 300 300 301 301 301 301 301 301 301 301 302 303 304 305 306 307 309 310 311 312 312 312 312 312 311 312 312 312 312
296 296 296 296 296 296 296 296 296 296 296 296 296 296 296 296 297 297 297 296 296 296 296 296 297 297 297 297 297 297 297 297 298 298 298 298 298 298 298 299 299 300 300 300 301 300 300 300 300 301 301 302 302 303 304 305 306 307 308 310 311 311 312 312 311 311 312 312 312
295 295 295 295 295 295 295 295 295 295 295 295 295 295 296 296 296 297 297 296 296 296 296 296 296 296 296 297 296 296 296 296 296 297 297 297 297 297 298 298 298 299 299 299 300 300 300 300 300 300 301 301 302 302 303 304 304 306 307 309 310 311 311 311 311 312 312 312 312
294 294 294 294 294 294 294 294 294 294 294 294 294 295 295 295 295 296 296 296 295 295 295 295 295 295 295 296 296 296 296 296 296 296 296 296 296 297 297 297 297 298 298 298 299 299 299 300 300 300 300 301 301 302 303 303 304 305 307 309 310 310 311 311 312 312 312 312 312
293 293 293 293 293 293 293 293 293 293 293 293 293 293 294 294 294 294 295 295 295 294 294 294 295 295 294 295 295 295 295 295 295 295 295 295 295 296 296 296 297 297 297 297 298 298 298 299 299 300 300 300 301 302 302 303 304 305 306 307 309 310 311 311 312 312 312 312 311
292 292 292 292 292 292 292 292 292 292 292 292 292 292 292 293 293 293 293 293 294 293 293 293 293 294 294 294 294 294 295 294 294 294 294 294 295 295 295 296 296 296 296 296 297 297 297 298 298 298 299 299 300 301 302 302 303 304 305 306 308 309 310 310 311 311 312 311 311
291 291 291 291 291 291 291 291 291 291 291 291 291 291 291 291 292 292 292 292 292 292 292 292 292 292 293 293 293 293 294 294 293 293 293 294 294 294 294 295 295 295 295 296 296 296 296 296 297 297 298 298 299 300 300 301 302 303 304 305 306 307 308 309 310 310 311 311 311
290 290 290 290 290 290 290 290 290 290 290 290 290 290 290 290 290 290 290 291 291 291 291 291 291 291 291 292 292 292 293 294 293 293 293 293 293 294 294 294 294 295 295 295 295 295 295 296 296 296 297 297 298 298 299 300 300 301 302 303 304 305 306 307 307 308 309 309 310
289 289 289 289 289 289 289 289 289 289 289 289 289 289 289 289 289 289 289 289 289 289 289 289 290 290 290 290 290 291 291 293 292 292 292 292 293 293 294 294 293 294 294 294 294 294 295 295 296 296 296 297 297 298 298 299 299 299 300 301 301 302 303 304 305 306 307 308 308
288 288 288 288 288 288 289 288 288 288 288 288 287 287 287 288 288 288 288 287 288 288 288 288 288 288 289 289 289 290 290 291 291 291 291 291 291 292 292 292 292 292 293 294 294 294 294 295 296 296 296 297 297 297 298 298 298 298 299 299 299 300 301 302 303 304 306 307 307
286 287 287 287 287 286 286 286 286 286 286 286 286 286 286 286 286 287 287 287 287 287 287 288 288 288 288 288 288 288 289 289 290 290 290 290 290 291 291 291 292 292 293 294 295 296 296 297 297 297 297 297 297 297 298 298 298 298 298 298 298 298 298 299 300 301 303 304 306
285 285 285 285 285 285 285 284 285 285 285 285 285 285 285 286 286 286 286 286 286 286 287 287 287 287 288 288 288 288 288 288 289 289 290 290 290 290 291 291 292 292 293 295 297 298 299 299 298 298 297 297 298 298 297 297 297 297 297 297 297 297 297 297 298 299 300 301 303
284 284 284 284 284 284 283 283 284 284 284 284 285 285 285 286 286 286 286 286 286 286 286 287 287 288 289 288 288 288 288 289 289 289 290 290 290 290 291 291 292 293 294 295 297 298 299 300 300 299 298 297 297 297 297 297 297 297 297 297 297 296 296 296 297 298 299 300 301
283 283 283 283 283 283 283 283 283 283 284 284 284 285 285 285 286 286 286 286 286 286 286 287 287 289 290 288 288 288 288 289 289 289 289 290 290 290 291 291 292 292 294 296 297 298 298 299 299 299 299 297 296 296 296 296 297 296 296 296 296 296 296 296 297 297 298 299 301
282 282 282 282 282 282 282 282 282 283 283 283 284 284 285 285 285 285 285 286 286 286 287 287 288 289 289 288 288 288 288 288 289 289 290 290 290 290 290 291 291 292 294 296 297 297 298 298 298 298 298 298 297 296 296 296 296 296 296 296 296 296 296 296 297 297 297 298 299
281 281 281 282 282 282 282 282 282 282 283 283 283 284 284 284 284 285 285 285 285 286 286 287 288 288 288 287 287 287 287 287 288 289 289 289 289 289 290 290 290 292 294 296 296 297 297 297 298 298 298 298 297 296 296 296 296 296 296 296 296 296 296 296 296 296 296 297 297
281 281 281 281 281 282 282 282 282 282 282 283 283 283 283 283 283 284 284 284 284 285 286 286 286 286 286 286 286 286 286 287 287 287 287 287 288 288 289 290 290 291 293 295 296 296 296 296 297 297 297 297 296 296 296 296 295 296 295 295 296 295 295 295 295 295 296 296 296
281 281 281 281 281 281 282 282 282 282 282 282 282 282 282 282 282 283 283 283 284 285 286 285 285 284 284 285 285 285 285 286 286 286 286 286 288 288 288 288 288 290 292 295 295 296 296 296 296 296 296 296 295 295 294 295 295 295 295 295 295 295 295 295 295 295 295 295 295
280 281 281 281 281 281 281 281 281 281 281 281 281 281 282 282 282 282 283 283 284 284 284 284 283 283 283 284 284 284 284 285 285 285 286 286 287 287 287 287 287 289 292 294 295 295 295 295 295 296 296 296 295 294 294 294 294 294 294 294 294 294 295 295 295 295 294 295 295
280 280 280 281 281 281 281 281 281 281 281 281 281 281 281 281 281 281 282 282 283 283 283 283 283 283 283 284 284 284 284 285 285 286 286 287 286 286 287 287 287 289 292 293 294 294 295 295 295 295 295 295 295 294 293 293 294 294 294 294 294 295 295 295 295 295 295 295 295
280 280 280 280 281 281 281 281 281 280 280 280 280 280 281 281 281 281 282 283 283 283 283 283 283 283 283 283 283 284 284 286 286 285 285 286 286 286 286 287 287 289 292 293 293 294 294 294 294 294 295 295 294 293 293 293 293 293 293 294 294 294 295 295 295 295 295 295 295
280 280 280 280 280 280 280 280 280 280 280 280 280 280 281 281 281 281 282 284 284 284 283 283 283 283 283 283 283 284 284 286 285 285 285 285 286 286 286 286 286 289 291 292 293 293 293 294 294 294 294 294 293 292 292 292 292 292 293 293 293 294 294 295 295 295 296 296 296
280 279 279 280 279 279 279 279 279 279 279 280 280 281 281 281 281 282 283 285 284 283 282 282 283 283 283 282 283 284 284 284 284 285 285 285 285 285 285 285 285 288 290 292 292 293 293 293 293 294 294 293 292 291 291 291 292 292 292 292 293 293 294 294 295 295 295 296 296
279 279 279 279 279 279 279 279 279 279 279 279 280 280 281 281 281 282 283 284 283 282 282 283 283 283 282 282 283 283 283 284 284 285 285 285 285 285 284 284 285 286 289 291 292 292 293 293 293 293 293 291 291 291 291 291 291 291 292 292 292 293 293 294 294 295 295 295 296
279 279 278 278 278 278 278 278 278 279 279 280 280 281 281 281 282 282 283 284 283 282 282 283 282 282 283 283 284 284 284 284 284 284 284 284 284 284 284 284 284 286 288 290 291 292 292 293 293 293 293 291 291 291 291 291 291 291 291 291 292 293 293 294 294 294 295 295 296
278 278 278 278 278 278 278 278 278 279 279 280 280 281 281 281 282 283 283 284 282 281 282 282 282 282 283 284 284 284 284 283 284 284 284 284 284 285 285 285 285 285 287 290 291 292 292 292 293 293 293 291 291 291 291 291 291 291 291 291 292 292 293 293 294 294 295 295 296
278 277 277 277 278 278 278 278 279 279 280 280 280 281 281 282 282 283 284 283 282 281 281 282 282 282 283 284 284 283 283 283 283 283 284 284 285 286 287 285 285 285 286 289 290 291 292 292 292 293 293 291 291 291 290 290 290 290 291 291 291 292 292 293 294 294 294 295 296
277 277 278 278 278 278 279 279 279 280 280 280 280 281 282 283 283 283 283 283 282 282 282 282 282 282 283 284 284 283 283 282 283 283 284 284 285 286 286 285 284 284 285 287 289 291 291 292 292 293 292 291 291 290 290 290 290 290 290 290 291 291 292 292 293 293 294 294 295
Wind_Speed
4 4 4 3 3 2 2 2 2 1 1 1 1 1 2 2 2 2 2 2 2 2 2 2 1 1 0 1 1 2 2 3 3 4 4 5 5 5 5 5 5 5 5 5 4 4 4 4 3 3 2 2 2 3 3 2 3 4 5 6 6 6 7 8 8 8 8 8 7
5 5 5 4 3 3 2 2 1 1 1 1 1 0 0 0 1 1 2 2 1 1 1 1 1 1 1 1 1 1 1 2 2 3 3 4 4 4 5 5 5 5 5 5 5 4 4 3 3 2 2 2 2 3 3 3 4 5 6 7 6 5 5 6 7 7 8 8 7
8 7 7 6 5 4 3 3 3 3 3 3 3 3 3 3 3 4 4 4 3 3 3 2 3 3 3 3 2 2 1 1 1 2 2 3 3 4 4 4 4 4 5 4 4 4 3 3 3 2 2 2 3 3 4 4 5 5 6 7 5 5 4 5 6 6 6 5 6
10 10 9 9 9 8 7 5 6 6 6 6 6 6 6 5 5 5 5 5 5 5 4 4 4 4 5 4 4 4 3 3 2 2 3 3 4 4 4 4 4 4 4 3 3 3 3 3 2 2 2 3 3 4 4 4 4 5 5 5 4 4 4 5 5 4 4 4 5
10 10 9 9 9 9 8 8 8 8 7 6 6 6 6 6 6 6 6 6 6 5 5 5 5 4 4 4 4 4 4 3 3 2 2 3 4 4 4 4 4 4 4 3 3 4 4 3 2 2 3 3 3 3 4 4 5 5 4 4 4 4 4 4 4 4 4 4 4
10 10 10 9 10 9 9 9 9 9 8 8 8 8 7 6 6 6 6 5 5 4 5 5 4 4 3 4 4 4 4 3 3 3 3 4 4 4 4 5 5 4 4 4 4 4 4 4 3 3 3 3 4 4 4 5 5 5 5 4 4 4 4 4 4 4 4 5 6
11 12 12 12 12 11 10 10 9 9 9 9 10 9 8 7 7 6 6 5 4 4 4 4 4 4 4 4 5 5 5 4 4 4 4 4 4 4 4 4 5 5 5 5 4 4 4 4 3 3 3 3 3 4 5 5 5 5 5 4 4 4 4 5 4 4 5 7 8
12 12 12 11 11 11 11 10 9 9 9 9 9 9 9 8 7 7 6 5 5 4 4 4 5 5 6 6 6 6 6 5 5 4 4 4 4 4 4 4 4 4 4 4 4 4 4 4 4 3 3 3 3 4 5 5 5 5 5 5 4 3 3 4 4 5 6 7 8
11 11 11 11 11 11 10 10 10 10 10 9 9 9 9 8 8 7 6 5 5 5 5 6 6 7 7 7 7 6 6 5 5 4 4 3 3 4 3 3 3 3 3 3 3 4 4 4 3 3 3 3 3 4 5 5 6 5 5 4 4 4 4 4 5 6 7 8 8
11 11 10 10 10 10 10 10 11 11 10 10 10 9 9 9 9 8 6 5 5 6 7 7 7 7 7 7 6 6 5 4 4 4 3 3 3 3 3 3 3 3 3 3 3 3 3 3 3 4 4 4 4 5 5 5 6 6 5 4 4 5 5 5 6 7 7 7 8
11 11 10 9 9 9 10 10 10 10 10 9 9 9 9 9 8 7 6 5 6 7 7 6 7 7 7 6 6 5 5 4 4 4 4 4 4 4 4 4 4 4 4 4 3 3 3 3 4 5 5 5 5 5 5 5 6 6 6 5 5 5 6 6 6 6 6 7 8
11 10 10 9 9 9 10 10 9 9 9 9 9 8 8 8 7 6 6 6 7 7 6 6 6 6 6 6 6 6 6 6 6 6 6 7 7 7 7 6 7 6 6 6 5 4 4 4 5 6 7 7 5 5 5 6 6 6 6 6 5 6 6 7 6 6 6 6 8
10 10 10 9 9 9 9 9 9 9 9 9 8 8 7 7 7 7 7 7 7 7 6 6 6 6 7 7 7 7 7 8 8 8 8 8 9 9 9 9 9 9 9 8 7 7 6 7 7 8 9 9 7 6 7 7 7 8 8 7 7 6 6 7 6 6 6 7 7
10 10 10 9 9 9 9 8 8 8 8 8 8 7 7 6 7 7 7 8 7 7 6 6 6 6 7 7 8 8 8 8 9 9 9 9 9 10 10 10 10 10 9 9 8 8 8 8 9 9 10 10 10 9 8 8 8 9 9 9 8 8 8 7 7 6 6 7 7
10 10 10 9 9 9 8 8 7 7 8 8 8 7 7 6 7 7 8 8 7 7 7 7 7 7 7 8 8 9 9 9 9 9 10 10 10 10 10 9 9 9 9 9 9 8 8 9 9 9 9 10 10 10 10 9 9 8 8 9 9 9 9 8 7 7 7 8 8
10 10 10 10 10 9 9 8 7 7 7 8 8 7 7 7 7 7 8 9 8 7 7 8 7 7 7 8 8 8 8 8 9 9 9 10 10 10 10 9 9 9 9 9 9 8 8 8 8 8 9 9 10 10 10 9 9 9 9 9 10 10 9 9 8 8 8 8 9
10 10 10 10 10 10 9 8 7 7 7 8 8 8 7 7 7 8 8 9 8 8 9 9 8 8 8 8 8 8 8 8 8 8 9 9 9 10 10 9 9 9 9 9 9 9 9 9 8 8 8 9 9 9 9 10 9 9 10 10 10 10 10 10 9 9 9 9 9
10 10 10 10 10 10 10 9 8 8 8 8 8 8 8 7 7 8 8 9 9 9 9 9 8 8 8 9 8 8 7 8 8 8 8 8 9 9 9 9 9 9 9 9 9 9 9 9 9 8 8 8 8 8 9 9 9 10 10 10 10 10 10 10 9 9 9 9 9
10 10 10 10 10 9 9 9 8 8 8 8 7 7 8 8 8 8 8 8 9 9 9 9 9 8 8 9 8 8 7 7 8 8 8 8 8 9 9 9 9 9 9 9 9 9 9 9 9 9 8 8 8 8 8 9 9 9 9 10 9 9 10 10 10 9 9 9 9
10 10 9 9 9 8 8 8 8 7 7 6 7 7 8 8 8 8 8 9 9 9 9 9 9 9 9 9 9 8 8 6 7 8 8 8 8 9 9 9 9 9 9 8 8 8 8 9 8 8 8 8 8 8 9 9 9 9 9 9 9 9 10 10 10 10 10 10 10
9 9 8 8 8 8 7 7 7 6 6 7 7 8 8 8 8 8 8 8 8 8 8 9 9 9 9 9 9 8 7 6 7 7 8 8 8 8 8 8 8 8 8 8 8 8 8 8 8 8 8 8 8 8 9 9 9 9 9 9 9 9 10 10 11 11 11 11 11
8 7 7 7 7 7 7 7 7 7 7 7 8 8 8 8 8 8 7 7 7 7 7 7 7 8 8 8 8 7 7 6 6 6 6 7 7 7 7 7 8 8 8 8 8 8 8 8 8 8 8 8 8 8 9 9 9 9 9 10 10 10 10 10 10 11 11 11 11
6 6 6 6 7 7 7 7 7 7 7 8 8 8 7 7 7 7 7 6 6 6 5 5 6 6 6 6 6 6 6 6 6 6 6 6 6 7 7 7 7 7 7 7 7 7 7 8 8 8 8 8 8 8 9 9 9 9 10 10 10 11 11 10 10 11 11 11 12
6 6 6 6 6 7 7 6 7 7 7 7 7 6 6 6 6 6 6 6 6 6 6 5 5 5 5 5 5 5 6 6 7 7 7 7 7 7 7 7 6 6 6 6 7 8 9 9 8 8 8 8 8 9 9 9 9 9 10 10 11 11 11 11 11 11 11 12 12
6 6 5 6 5 6 6 6 6 6 5 5 5 5 5 5 5 6 6 6 6 6 6 6 5 5 5 5 5 5 6 6 7 8 8 8 8 7 7 6 6 6 6 7 11 15 16 15 12 10 9 9 9 9 9 9 9 9 10 10 11 11 11 12 12 12 12 12 12
5 5 5 5 4 5 5 5 4 4 4 4 4 4 5 5 5 5 6 6 6 6 6 6 6 6 6 5 6 6 6 6 7 7 8 9 9 9 8 7 6 6 7 9 15 18 19 20 18 16 13 10 9 9 9 9 9 10 10 10 10 11 11 12 12 12 12 13 13
4 4 4 3 4 4 4 3 3 4 4 4 5 5 5 5 5 6 6 6 6 6 6 5 5 6 6 5 6 7 7 7 7 7 8 8 9 9 9 8 7 7 8 13 17 20 20 20 20 19 16 12 10 10 10 10 10 10 10 10 10 10 11 12 13 13 14 14 14
3 3 3 3 4 4 4 4 4 5 5 5 5 5 5 6 6 6 6 6 6 6 6 5 5 5 5 5 6 7 7 7 7 7 7 8 8 9 9 8 7 8 11 16 19 20 20 20 20 20 19 16 12 10 10 11 11 10 10 10 10 11 12 12 12 13 13 14 14
2 3 3 4 4 4 4 5 5 6 6 6 6 6 6 6 7 7 7 7 7 6 6 5 5 4 4 5 6 6 7 6 6 6 7 7 8 8 8 8 8 10 13 18 19 20 20 19 19 20 20 19 13 10 9 10 10 10 10 9 10 11 11 11 11 12 12 13 13
2 3 4 4 5 5 5 5 5 5 5 5 6 6 7 7 7 7 7 6 6 5 5 5 4 5 5 5 5 5 6 6 6 6 6 7 7 8 8 8 8 10 13 17 18 19 19 19 19 20 20 20 16 12 10 10 10 10 9 9 10 11 12 12 13 13 13 13 13
3 3 4 5 5 6 6 6 5 5 5 6 6 6 6 6 6 6 5 5 5 5 5 5 4 5 5 5 5 5 5 6 6 6 6 7 8 8 8 8 8 9 12 16 18 19 19 20 20 20 20 21 17 13 10 10 10 10 10 10 11 12 12 12 13 13 14 14 13
3 4 4 5 6 6 6 6 6 5 6 6 6 6 6 5 5 5 4 4 5 5 5 4 4 5 5 5 5 5 5 6 6 6 6 7 7 8 8 8 8 9 12 16 18 19 20 20 21 21 21 21 18 14 12 11 11 11 11 12 13 13 13 12 12 13 14 15 14
4 4 4 5 5 6 6 6 5 5 5 5 5 5 5 5 5 5 5 4 4 4 4 4 4 5 5 5 5 5 6 6 7 7 7 7 8 8 8 8 8 9 13 17 19 20 21 21 21 21 22 22 18 14 12 11 10 10 10 11 12 13 13 14 13 14 14 15 14
4 4 4 4 5 5 5 5 5 5 5 5 5 5 5 4 5 5 5 4 3 3 3 3 4 4 4 4 5 6 6 7 7 7 7 8 8 8 8 8 7 10 14 18 20 20 21 21 21 22 22 22 16 12 10 11 11 11 11 12 12 13 13 13 14 14 15 15 14
4 4 4 4 5 5 5 5 5 4 4 4 5 5 4 4 4 4 5 4 4 3 3 3 4 4 4 4 5 5 6 8 8 8 8 8 8 9 10 9 9 12 16 19 20 21 21 21 22 22 22 19 13 10 10 11 11 12 12 13 13 13 14 14 14 14 14 14 14
3 3 4 4 5 5 5 5 4 4 4 4 5 5 5 4 4 4 4 4 4 4 4 5 5 5 5 5 5 6 6 8 9 9 9 9 9 10 11 11 11 13 16 19 20 21 21 22 22 22 21 16 11 10 10 11 11 11 12 13 13 13 14 14 14 13 13 13 13
3 3 3 4 4 4 4 4 4 4 4 5 4 4 5 5 4 4 4 4 4 5 6 6 6 6 6 7 7 7 7 7 8 10 10 10 10 11 12 13 12 14 16 19 21 22 22 22 23 22 20 14 11 10 10 10 10 11 12 13 13 13 13 13 13 13 13 13 13
4 3 3 3 4 4 4 3 4 4 5 5 4 4 4 4 4 4 5 5 5 6 7 7 7 7 8 8 9 9 9 9 9 10 11 11 11 11 12 14 13 14 15 19 21 23 23 23 23 23 20 14 12 11 10 10 10 11 11 12 12 13 12 11 11 11 12 13 14
4 3 3 3 3 3 4 3 4 4 4 5 5 5 5 5 5 5 5 5 5 6 7 7 8 8 9 10 10 11 11 10 10 10 11 11 12 13 14 14 14 14 15 19 22 23 24 24 24 23 21 16 13 11 10 10 11 11 12 11 12 12 12 11 10 10 11 13 15
4 3 3 3 3 3 3 4 4 4 4 5 5 6 6 6 6 6 6 6 6 6 7 7 8 9 10 11 11 11 12 12 11 11 11 12 13 15 16 15 14 14 16 18 21 23 24 24 24 24 22 16 13 11 10 10 11 12 12 11 11 11 11 11 10 10 10 12 13
3 3 3 3 3 3 3 4 4 4 4 5 6 6 6 6 6 6 6 6 7 7 7 7 9 10 11 11 11 11 12 13 12 12 12 13 14 15 15 14 14 14 15 17 20 22 24 24 25 25 23 18 14 11 10 9 11 12 13 12 12 11 11 11 11 10 10 11 11
Wind_Direction
114 106 102 106 106 101 93 84 81 87 117 160 184 199 204 199 188 179 172 166 171 176 183 190 188 169 116 108 166 191 206 216 221 224 226 228 231 233 235 237 237 237 238 240 242 245 249 251 256 264 275 285 289 289 284 271 260 253 249 245 244 244 245 247 251 253 254 254 253
78 76 75 77 80 82 84 86 97 118 146 165 178 198 224 27 51 60 61 61 57 52 46 36 35 36 40 53 129 179 206 226 230 233 236 237 239 238 237 234 232 230 230 232 233 236 239 243 250 261 274 285 289 287 281 270 260 254 249 245 244 243 244 245 247 249 251 253 253
59 59 59 59 61 67 75 83 78 74 69 64 58 51 43 35 32 31 31 26 21 19 17 13 13 14 14 12 15 9 354 320 302 290 282 275 271 266 259 251 244 238 234 233 235 239 243 244 247 255 265 274 276 277 275 270 263 259 255 250 249 246 245 245 246 246 248 251 251
68 68 67 66 66 68 70 75 72 69 66 62 59 57 53 49 45 43 41 36 30 26 21 17 14 12 11 10 7 3 358 350 340 325 309 299 293 286 280 275 268 259 250 243 243 246 250 251 254 256 259 264 266 267 267 267 264 263 262 259 256 253 250 249 247 246 247 250 250
69 71 73 75 74 74 74 74 71 69 65 61 58 55 51 48 46 45 43 42 37 32 28 27 24 19 15 16 14 10 3 357 351 341 326 318 311 308 305 303 293 284 276 265 255 249 246 244 251 255 255 255 255 255 256 256 260 264 266 268 265 261 257 256 253 251 249 250 249
61 61 62 64 64 64 64 62 61 60 58 55 54 52 49 46 44 44 44 43 38 34 32 35 32 29 26 29 30 26 21 15 10 3 355 346 338 333 326 319 308 301 295 288 274 261 250 242 249 252 250 248 250 250 249 249 253 258 263 268 270 270 269 267 264 259 255 253 253
58 57 57 56 57 57 57 56 58 58 58 57 55 53 50 47 46 46 45 44 38 32 31 33 30 29 29 30 31 27 23 18 15 13 8 2 356 350 343 333 322 314 306 298 290 280 270 259 256 251 246 242 246 246 245 246 249 253 258 264 268 274 276 277 275 270 265 260 256
57 56 56 55 56 57 56 55 57 57 57 56 54 52 50 48 46 44 42 40 35 30 27 28 25 26 27 28 26 22 18 14 11 9 8 6 2 358 353 346 338 328 315 302 294 285 277 270 262 253 247 242 242 241 242 243 248 254 259 265 270 275 279 282 283 280 276 270 264
54 53 53 53 54 55 56 56 56 56 56 55 52 49 47 45 42 40 38 35 30 27 26 26 23 23 24 26 24 20 16 11 7 4 4 7 7 4 0 357 353 343 331 318 302 288 278 272 270 264 258 252 249 248 246 245 251 257 263 269 275 280 284 287 289 288 284 280 275
51 49 49 50 50 52 55 56 55 55 54 53 48 45 43 41 39 36 34 29 28 28 27 23 20 21 22 23 20 16 12 8 5 3 3 8 11 9 7 5 0 355 348 342 329 311 294 284 287 288 284 274 268 264 260 255 257 261 265 269 274 281 285 289 291 291 289 286 281
51 49 48 48 47 49 52 54 52 50 49 47 43 41 39 37 34 31 29 26 29 28 25 19 19 20 20 20 15 11 7 6 4 4 4 7 7 6 5 4 3 359 356 354 350 344 334 326 319 315 311 304 292 283 277 270 267 266 267 268 270 276 281 284 286 287 287 285 282
49 48 46 45 44 45 48 50 49 46 44 42 39 37 36 33 29 26 25 26 28 25 20 15 18 19 19 16 11 8 6 5 4 3 3 3 2 1 1 0 360 358 357 356 356 354 350 346 340 333 327 322 314 306 299 293 286 281 277 274 271 272 275 278 278 278 279 278 277
48 45 43 41 40 43 45 47 46 43 40 37 35 33 31 27 23 23 25 25 24 20 15 11 15 17 17 12 9 6 5 4 4 4 3 2 1 360 358 358 357 356 355 354 354 354 351 347 344 339 335 331 326 322 316 310 304 298 293 287 281 277 275 275 274 274 273 271 270
47 45 42 40 40 42 44 44 43 40 37 34 31 29 26 23 21 22 23 22 20 16 12 9 12 14 13 10 7 5 4 3 3 3 2 1 360 358 356 354 354 353 352 350 350 351 349 346 343 340 336 332 328 325 321 317 311 305 300 295 290 285 282 279 276 275 273 271 270
48 45 43 42 42 42 42 41 40 37 34 31 27 24 22 21 19 20 20 19 16 14 12 9 9 9 9 8 6 4 2 2 2 1 0 358 357 355 354 351 350 349 347 346 345 345 345 343 340 337 334 330 326 324 321 318 313 307 300 295 292 289 286 282 280 277 274 272 271
48 45 43 43 42 42 41 39 37 34 31 28 24 22 21 19 16 17 17 16 13 11 10 9 6 5 4 5 4 2 1 1 1 0 358 355 353 351 350 348 346 345 344 342 341 340 339 338 335 332 329 326 323 321 319 316 312 306 301 295 292 290 287 283 280 277 274 272 269
46 44 42 42 42 41 39 37 34 31 29 26 23 21 20 17 15 15 15 14 11 9 7 6 4 2 1 1 1 1 360 359 359 357 355 352 349 347 345 344 342 341 340 338 336 335 333 332 330 328 325 322 319 317 316 314 310 306 302 298 294 291 288 285 281 277 273 269 266
45 42 41 40 40 39 37 34 32 30 27 24 22 20 18 16 14 13 12 11 10 7 4 2 2 1 359 358 358 358 357 356 354 352 350 348 345 344 342 340 338 337 336 335 332 330 328 326 325 323 322 319 316 314 313 312 309 305 302 299 297 294 291 288 283 278 273 268 266
44 41 40 39 38 37 35 33 31 28 25 23 21 18 17 15 13 11 10 8 7 5 2 360 359 358 357 355 354 354 354 353 350 347 345 343 342 340 338 336 335 334 332 330 327 324 322 320 319 318 317 315 313 312 311 310 308 305 302 300 298 297 295 292 286 281 275 271 268
43 41 39 37 36 35 33 31 29 26 23 22 20 17 15 12 11 10 8 5 2 1 1 359 357 355 353 352 351 351 350 349 347 344 341 340 339 336 334 332 330 329 327 325 322 319 316 314 314 313 312 311 311 310 310 309 307 305 303 301 300 298 296 294 290 285 280 275 272
42 39 37 35 34 33 30 28 25 23 21 20 17 15 12 10 9 7 5 360 358 358 359 357 354 351 349 347 346 345 344 343 342 340 337 335 333 330 328 327 325 324 323 321 318 314 312 309 308 308 308 308 308 308 308 309 307 306 305 303 302 300 297 295 291 288 284 280 277
38 36 34 32 30 28 26 24 21 20 19 17 14 12 9 7 5 2 358 355 355 356 356 353 349 345 341 339 338 336 336 337 336 334 332 330 328 326 324 323 322 321 319 317 315 312 309 307 306 305 305 306 305 305 306 307 307 307 306 305 303 301 298 296 292 290 287 284 281
33 31 29 28 26 24 22 20 18 17 16 13 10 7 5 2 358 354 352 352 353 351 349 345 340 335 331 328 328 329 331 333 332 331 329 327 324 323 322 322 321 320 318 315 313 312 311 311 310 309 308 307 305 305 305 305 305 305 305 304 303 301 299 297 294 292 289 286 282
28 26 24 23 20 19 17 16 15 14 11 8 4 1 357 354 351 349 349 348 348 345 341 337 332 327 324 324 327 331 332 333 332 330 329 328 326 325 324 323 322 319 316 314 318 320 320 319 317 315 313 311 309 307 306 305 304 303 303 303 302 301 300 298 296 293 291 288 285
25 23 21 18 16 13 12 12 11 9 5 359 356 353 352 349 347 347 347 345 344 342 338 334 330 328 328 331 332 334 334 333 331 330 329 329 328 327 326 326 323 320 318 316 319 321 321 320 319 317 315 313 311 309 307 304 303 302 301 301 301 300 299 298 296 294 293 290 288
22 20 17 12 11 9 7 7 3 360 355 350 350 350 349 346 345 344 344 343 341 339 337 335 333 334 335 336 335 335 335 334 331 330 328 327 327 327 327 325 323 321 319 319 320 320 320 319 318 317 315 312 311 308 306 304 303 302 301 300 299 298 298 297 296 295 294 293 291
20 17 10 5 6 5 0 355 353 350 349 347 348 346 344 342 342 343 342 340 338 336 335 336 335 337 337 335 335 334 333 331 329 328 326 325 324 324 323 322 320 319 317 318 318 318 318 318 317 317 315 312 310 308 306 305 304 302 300 299 297 297 296 296 296 296 295 294 294
15 10 3 2 2 357 350 348 349 348 346 345 344 342 341 342 342 341 340 337 336 336 337 337 336 335 334 333 331 329 327 325 324 323 321 320 318 318 317 316 316 315 314 316 316 316 316 316 316 315 315 313 310 307 305 304 303 302 300 298 297 296 295 295 296 296 296 295 296
7 4 3 3 356 350 347 349 348 345 342 340 340 340 341 342 341 338 336 335 336 336 334 331 330 330 329 326 322 319 318 317 316 315 314 313 311 310 309 309 309 309 310 312 312 313 313 313 313 313 312 312 310 308 305 302 301 299 298 296 295 294 294 293 292 292 292 292 292
1 4 4 0 354 350 347 346 342 339 337 336 338 340 340 338 336 334 331 330 327 323 319 315 318 318 315 311 310 309 309 307 306 305 305 304 303 303 302 303 303 304 305 307 309 310 310 311 311 310 310 310 308 304 300 298 296 295 293 291 289 288 287 287 286 286 286 287 287
0 3 2 357 352 346 341 337 335 334 335 335 336 336 334 331 327 323 319 316 310 306 304 306 307 304 301 298 299 299 299 298 298 298 297 296 297 297 298 298 298 298 301 304 306 308 310 310 310 310 309 309 306 302 297 294 292 290 288 286 284 283 283 283 282 282 282 282 283
359 0 358 354 346 339 333 330 330 331 331 332 330 327 324 318 312 305 300 297 297 300 303 306 304 301 299 299 297 296 294 295 295 294 293 293 294 295 296 297 296 297 300 305 307 309 310 310 310 309 308 308 304 300 296 292 290 287 284 281 280 279 278 276 276 276 276 276 277
356 355 352 346 337 330 325 325 325 326 326 325 321 316 311 305 300 297 294 290 291 293 297 300 301 301 302 302 301 299 297 296 295 294 294 294 294 295 296 297 297 299 303 307 308 309 310 310 310 309 308 308 305 301 296 292 289 285 283 280 278 276 274 272 271 270 270 269 270
348 347 342 334 326 322 319 319 319 320 319 317 310 304 300 298 298 298 295 291 287 286 287 290 292 293 293 295 297 298 299 301 300 300 299 298 298 299 299 300 299 303 306 308 309 309 310 310 310 310 309 309 306 302 296 292 289 287 284 282 280 278 275 273 271 269 267 266 265
336 335 330 322 317 315 314 313 314 314 312 308 303 299 296 294 294 293 292 292 294 295 294 293 291 291 292 293 295 299 303 306 307 306 306 305 306 305 304 303 300 304 307 309 309 310 310 310 310 311 311 310 307 302 297 294 291 288 286 284 282 280 278 276 274 271 269 266 264
320 320 317 312 310 309 308 307 307 307 306 304 303 303 302 301 295 292 292 297 305 309 310 308 308 309 309 309 307 308 310 312 312 312 313 313 313 312 309 307 304 306 309 311 311 311 312 312 312 312 312 310 305 300 297 295 292 289 287 286 284 283 281 279 278 275 272 269 266
305 305 304 302 302 302 301 300 303 306 307 307 308 310 311 309 306 304 307 317 321 322 322 321 321 321 321 319 318 316 316 316 316 317 317 318 318 315 312 310 308 309 311 313 313 313 313 313 313 313 313 310 305 300 298 295 293 290 289 288 286 284 283 282 280 277 273 270 267
293 290 288 289 292 294 296 298 304 308 311 312 313 316 317 317 317 320 325 334 332 330 328 328 327 326 324 323 320 318 318 319 319 319 318 318 317 315 313 311 310 310 312 314 314 314 314 314 313 314 314 310 306 303 300 297 294 292 291 290 288 287 285 283 281 278 274 271 267
282 276 270 270 280 286 293 301 307 312 316 319 323 326 327 329 329 330 333 337 334 331 329 327 326 325 324 325 323 322 321 320 320 319 318 316 315 315 314 312 311 310 311 313 314 314 314 314 313 314 314 311 308 305 301 298 296 294 292 292 291 289 287 284 283 280 278 274 271
271 262 256 256 269 283 297 309 314 317 321 326 330 332 333 333 332 332 333 335 334 331 328 325 324 323 324 327 325 323 321 320 320 319 317 315 314 315 315 313 311 310 310 312 313 313 313 313 313 314 314 312 309 306 303 300 297 296 295 294 294 292 290 288 285 283 281 279 276
261 254 252 256 268 288 307 319 321 325 329 334 334 334 333 333 332 333 335 335 334 333 330 326 324 324 325 327 325 322 320 319 319 318 318 316 316 316 315 313 311 310 309 310 312 313 313 313 314 314 314 312 310 307 304 301 299 298 297 296 295 294 292 291 288 285 281 280 279